RH
14 13 11 11 13 12 11 7 4 4 3 4 6 4 5 12 18 13 14 22 39 50 60 95 100 100 100 100 100 100 100 100 100 96 100 100 100 100 100 100 100 100 100 100
22 19 17 11 10 11 13 14 12 5 3 4 4 5 6 5 6 14 15 13 16 49 48 74 100 100 100 100 100 100 100 100 100 100 100 97 100 100 100 100 100 100 100 100
32 24 23 16 14 12 14 15 17 17 10 6 4 5 5 7 6 6 11 20 15 15 43 70 100 100 100 100 100 100 100 100 100 100 100 100 100 100 100 100 100 100 100 100
36 31 28 23 19 15 13 16 17 16 15 14 10 5 5 5 7 8 7 8 16 25 16 26 48 97 100 100 100 100 100 100 100 100 100 100 100 100 100 100 98 100 100 100
40 36 32 28 23 23 16 18 19 18 16 15 13 11 7 5 5 6 8 9 8 12 21 22 25 34 76 100 100 100 100 100 100 100 100 100 100 100 100 100 100 100 100 100
41 39 33 32 29 25 23 22 22 19 15 15 14 13 12 8 6 5 6 6 9 14 13 25 36 25 22 28 68 99 100 100 100 100 100 100 100 100 100 100 100 100 100 100
44 42 37 35 34 29 27 29 28 22 20 16 14 14 14 12 9 9 6 5 5 7 9 17 23 36 36 29 36 66 100 100 100 100 100 100 100 100 100 100 100 100 100 100
47 43 41 38 35 33 30 32 34 32 23 19 21 20 17 20 17 11 10 7 5 5 5 8 11 23 62 69 61 56 54 66 94 100 100 100 100 100 100 100 100 100 100 100
51 46 43 40 38 36 33 36 33 35 32 28 25 21 21 21 18 22 14 10 9 7 5 4 6 9 9 13 34 69 84 76 66 81 93 88 100 100 100 100 100 100 100 100
54 52 47 44 42 40 39 39 36 38 35 31 30 28 26 24 25 24 26 22 13 11 10 8 6 5 6 9 10 19 31 80 96 97 100 100 100 100 100 100 100 100 100 100
60 58 53 48 44 42 44 41 44 40 38 36 33 41 43 40 34 28 28 28 29 26 14 12 10 9 7 5 6 8 9 14 31 42 45 84 100 100 100 100 100 97 100 100
72 64 60 51 48 45 45 44 41 46 45 40 38 45 53 43 35 24 30 29 30 26 26 26 22 17 12 8 7 5 5 7 8 10 14 19 23 29 57 90 94 92 93 87
83 72 66 60 52 48 46 46 43 49 46 46 44 41 56 64 52 42 33 31 26 22 25 25 25 25 21 15 10 8 7 6 6 6 7 8 9 13 18 22 25 30 34 32
91 80 71 66 58 52 50 47 46 44 48 47 50 44 59 57 68 54 57 46 35 30 25 28 25 25 24 21 19 12 9 8 8 6 7 8 8 8 9 11 13 16 20 23
98 88 74 68 64 58 56 50 49 44 43 46 50 54 60 62 76 60 50 54 50 43 41 35 34 28 25 22 18 18 12 8 8 7 7 6 8 9 9 10 10 13 16 20
99 93 77 74 69 64 62 53 50 44 46 47 51 50 56 62 71 64 61 57 60 53 48 43 33 30 30 24 20 14 14 14 8 7 7 7 8 8 9 10 13 14 18 23
99 92 79 80 76 70 66 62 53 50 47 47 54 54 52 54 64 59 74 65 64 60 55 47 48 41 36 31 23 17 10 10 10 8 7 7 7 8 8 10 13 15 16 18
100 92 80 82 78 70 72 66 57 52 45 51 57 62 60 59 67 65 74 80 62 68 52 50 45 35 35 32 23 16 10 7 7 7 7 7 7 7 8 9 11 16 20 21
100 95 84 83 76 72 75 69 64 54 46 47 52 61 66 64 62 61 62 83 67 63 54 49 46 36 36 30 19 12 8 5 5 6 6 6 6 6 7 8 9 10 14 19
100 100 91 85 85 81 83 77 67 52 46 45 52 62 68 76 69 68 62 68 67 61 63 50 39 36 31 19 13 8 5 4 4 5 5 5 6 6 6 6 7 9 10 15
100 98 89 95 98 96 87 83 65 51 49 50 52 56 68 84 81 76 73 64 75 61 52 42 32 24 21 13 9 5 4 4 4 4 5 5 5 5 6 6 7 8 10 13
98 94 95 99 100 93 83 83 76 56 53 50 50 54 67 77 80 79 72 76 74 73 58 49 35 26 19 11 6 4 4 4 4 4 4 4 4 5 5 6 7 7 8 11
98 95 100 100 100 91 79 87 78 64 59 52 50 56 64 75 72 86 73 76 66 74 53 45 29 24 18 8 5 4 4 4 4 5 5 5 5 5 5 6 6 7 8 10
99 100 100 100 100 88 89 94 82 72 62 56 54 58 62 72 74 75 78 75 69 70 50 38 25 19 13 7 4 4 4 4 5 6 6 6 6 6 5 6 6 7 8 9
100 100 100 100 100 96 100 96 90 70 61 62 59 62 64 70 70 72 77 73 72 61 42 36 21 16 10 6 4 4 5 5 6 7 6 7 7 7 7 7 7 7 8 9
100 100 100 100 94 98 96 91 79 70 65 62 63 66 65 67 64 72 80 72 72 56 46 28 17 13 8 4 4 4 6 6 6 7 7 8 8 8 9 8 8 8 8 8
100 100 99 100 100 100 98 86 72 63 58 60 63 63 63 66 64 75 72 77 67 52 40 21 15 9 6 4 4 5 6 6 7 7 7 8 9 9 9 9 9 9 8 8
Wind_Speed
42 44 45 43 43 36 39 29 21 19 12 5 11 28 35 53 69 86 97 113 123 131 133 135 135 137 120 110 114 114 112 110 105 109 109 104 104 105 104 107 106 107 107 103
43 47 49 48 47 45 37 41 33 19 13 15 10 11 29 37 45 69 92 103 117 123 130 137 138 139 138 126 118 112 111 118 113 114 110 110 104 104 105 109 106 103 103 103
41 44 50 52 53 52 50 51 49 46 28 20 15 13 15 29 43 48 67 96 100 121 131 137 140 142 145 141 129 125 120 113 111 112 114 109 104 103 101 106 106 108 107 106
37 43 48 52 55 53 53 53 57 55 48 38 24 11 15 18 29 48 54 64 88 109 125 134 145 148 152 148 146 136 133 128 123 118 119 120 117 111 112 111 117 119 117 117
35 40 46 50 52 57 56 55 57 57 51 48 36 28 18 13 19 29 46 61 66 81 103 122 139 151 155 153 157 153 146 142 142 137 130 126 125 125 124 127 130 126 121 119
32 36 41 46 51 55 58 60 62 61 57 50 47 39 31 25 19 16 26 39 57 74 77 96 115 132 141 150 156 159 156 158 151 148 144 144 136 134 137 134 131 129 128 130
28 33 38 42 47 52 55 62 64 66 65 59 54 45 44 38 32 28 16 20 32 50 67 87 95 115 121 134 149 157 165 165 164 163 159 155 149 145 145 143 138 136 134 134
27 30 33 38 42 47 54 58 67 67 67 67 66 64 58 49 43 35 30 19 19 27 40 59 77 97 121 132 144 150 161 162 165 169 165 164 165 161 159 153 153 153 146 149
25 28 31 35 40 45 49 54 59 63 68 69 69 68 63 60 54 45 35 29 22 16 22 33 49 67 82 96 115 130 152 160 156 154 163 170 171 170 167 164 165 161 159 167
26 28 30 34 39 43 44 49 53 60 68 68 69 67 63 61 60 57 46 40 28 24 20 20 27 37 52 68 84 102 115 138 160 156 158 164 159 163 167 164 169 174 170 167
27 30 31 33 38 43 44 46 50 55 59 66 71 69 65 63 65 63 57 49 43 37 30 25 22 26 33 43 55 70 85 100 124 137 135 158 174 173 170 163 151 154 164 167
29 31 33 33 37 41 45 45 50 54 57 62 66 63 61 66 65 64 61 55 50 42 43 37 35 30 28 32 38 48 58 69 81 93 105 117 125 129 142 160 178 167 164 169
28 32 34 35 37 41 44 46 48 51 56 59 61 63 64 65 68 67 68 68 62 53 52 45 43 40 34 31 32 37 43 51 60 68 74 82 87 93 100 108 115 120 129 136
28 31 33 36 37 41 44 47 49 53 55 59 61 65 63 64 66 68 69 70 70 69 65 60 58 51 45 37 34 34 37 42 48 55 61 66 72 78 84 89 92 95 97 98
28 30 33 35 38 41 44 48 49 51 56 58 62 62 65 66 64 68 71 72 74 74 74 72 68 64 55 47 40 36 37 38 42 48 52 56 61 65 73 72 76 79 81 83
30 31 32 35 39 41 43 46 49 52 54 58 62 67 66 64 68 73 76 73 76 80 76 75 77 73 68 59 50 43 39 39 41 43 47 52 55 58 63 66 69 71 73 75
32 32 31 35 39 42 44 45 49 53 55 57 61 67 68 70 68 72 76 77 77 79 82 82 80 79 72 66 59 52 46 41 40 42 44 46 50 54 56 60 63 68 71 71
33 32 30 35 38 41 44 47 50 53 56 57 60 65 69 72 73 75 78 80 81 83 87 86 86 85 81 72 64 57 51 46 44 43 44 45 47 50 53 55 58 62 66 67
35 33 33 38 38 40 44 47 51 56 58 61 62 65 68 73 75 79 79 82 85 89 90 88 89 93 85 75 67 59 53 49 46 45 45 45 46 48 50 52 55 56 59 62
37 36 37 40 38 40 44 48 54 58 60 64 65 67 71 72 78 81 85 88 90 90 90 91 97 93 86 75 68 60 54 50 47 45 45 45 46 47 48 50 52 54 55 57
34 34 36 38 39 42 46 51 54 59 61 65 66 68 73 73 82 86 90 92 91 92 97 96 97 97 84 74 67 61 55 50 47 44 43 43 43 45 46 48 49 51 53 54
34 34 37 39 42 45 50 53 56 60 64 67 70 71 75 77 83 89 91 94 94 95 96 98 101 93 82 73 65 58 54 49 45 43 42 41 41 41 44 45 46 48 50 52
37 36 38 41 45 49 54 56 59 64 67 71 73 75 77 80 84 94 96 97 98 99 99 101 101 92 81 71 63 57 51 47 44 41 39 38 38 38 40 42 43 44 46 49
40 41 42 45 49 52 57 58 61 65 69 72 76 78 81 85 87 94 95 98 98 102 101 104 104 93 79 69 62 56 50 45 42 40 37 36 36 36 37 39 40 41 43 45
45 45 47 49 53 56 58 59 64 69 71 72 77 79 84 86 90 98 99 100 101 103 105 108 104 90 77 69 62 54 48 43 39 38 37 36 36 36 37 37 39 40 41 42
47 48 51 54 57 58 59 62 68 70 71 74 78 82 87 90 92 99 100 102 104 106 108 109 99 85 76 68 62 52 47 42 39 38 37 36 35 34 35 35 36 37 38 39
46 48 51 54 56 59 62 64 69 69 72 75 80 84 89 92 97 98 100 103 106 108 110 108 95 81 74 68 60 51 46 43 42 40 37 34 32 31 32 33 34 34 35 36
Wind_Direction
15 20 26 35 38 31 37 40 30 24 17 13 251 238 228 225 228 224 217 211 212 214 215 215 216 217 219 223 224 228 228 230 234 237 237 239 241 244 245 247 250 254 253 258
14 12 17 19 30 35 49 40 41 31 20 2 335 269 239 239 226 225 226 220 214 216 217 218 219 219 220 223 224 226 231 233 235 236 236 240 241 241 246 251 253 251 252 255
12 12 13 12 18 19 27 33 39 38 37 18 347 314 270 246 243 232 227 226 226 218 219 221 220 222 223 225 227 229 229 231 233 235 239 240 239 238 239 244 245 247 250 251
16 10 10 11 9 14 16 26 29 29 30 31 28 344 305 278 244 242 241 232 230 228 224 223 221 223 225 226 227 230 232 234 233 236 237 240 242 238 240 243 246 247 248 251
14 11 11 12 8 9 14 15 21 25 25 24 21 23 17 334 286 254 242 241 239 234 232 229 226 225 226 227 229 230 232 233 237 239 239 240 243 245 244 249 252 251 251 255
14 12 13 12 10 9 8 6 16 17 23 27 21 20 20 18 360 307 266 250 242 241 240 239 235 229 232 232 234 234 234 236 239 240 242 245 246 246 245 247 249 250 250 253
7 11 9 10 9 9 8 6 11 14 12 17 20 24 20 16 20 8 326 265 252 246 241 241 241 241 239 237 235 234 236 237 239 241 243 245 246 248 249 250 250 251 252 253
356 1 5 7 8 8 9 8 7 7 8 9 10 12 15 21 19 8 356 339 278 257 250 245 242 241 242 243 240 238 238 238 240 242 244 244 247 248 250 252 252 253 253 254
347 351 358 360 3 5 6 5 3 5 6 5 5 5 7 8 15 14 12 352 348 300 271 257 250 246 245 244 243 244 243 242 241 245 246 247 250 251 252 255 254 255 256 256
332 339 347 353 356 358 4 5 4 4 5 0 2 2 3 3 5 8 10 14 359 345 328 297 277 260 251 250 248 247 247 246 243 243 247 246 248 251 253 254 254 255 258 261
324 329 337 346 349 351 356 356 0 2 1 2 359 357 0 358 358 2 3 7 11 13 357 337 309 290 275 261 253 250 249 249 247 250 252 249 250 252 253 253 256 258 257 258
312 319 326 335 340 346 349 352 356 360 359 359 359 357 356 356 355 357 1 3 4 8 11 6 354 333 303 282 269 260 253 250 249 250 251 252 254 255 256 256 253 256 259 260
302 310 317 325 333 337 347 348 350 352 355 356 357 354 351 355 353 355 355 355 359 4 2 2 359 355 336 313 290 278 268 261 255 253 252 253 254 255 256 257 258 259 259 260
299 304 310 317 325 332 340 345 348 349 350 351 354 353 350 347 351 350 351 351 354 354 356 357 357 354 350 337 315 297 283 274 266 260 255 254 253 253 252 252 253 254 256 257
295 298 305 311 317 325 332 340 342 343 346 347 350 352 351 346 346 347 346 348 349 350 353 351 352 352 347 342 332 313 297 286 277 270 263 258 255 254 256 255 255 255 256 258
292 295 300 306 312 319 327 334 336 338 340 344 347 350 349 346 346 346 345 347 345 347 351 347 347 347 346 341 334 325 310 296 287 278 272 267 263 260 259 257 255 255 256 257
290 292 296 303 308 315 323 329 331 334 336 341 346 347 345 345 347 344 346 344 344 343 345 345 346 346 344 340 333 326 317 305 292 284 279 272 267 263 260 258 257 255 255 256
282 287 290 297 304 309 319 325 326 328 330 337 341 343 345 345 347 347 346 345 341 342 341 342 342 341 342 337 332 325 317 310 301 292 284 279 274 269 264 260 258 256 256 257
277 282 289 292 301 308 314 320 321 323 327 334 337 339 342 345 344 344 343 342 340 339 340 341 340 340 339 335 330 324 316 309 303 295 287 281 277 273 269 264 261 260 259 258
275 280 285 294 301 306 311 312 316 321 327 330 335 336 341 341 343 342 342 342 340 340 341 340 340 339 338 333 329 322 315 309 303 297 289 283 278 274 271 268 264 261 260 259
275 281 286 294 300 304 306 310 316 321 324 327 332 334 336 339 340 341 342 339 339 337 336 336 337 338 337 333 328 322 315 310 305 299 292 286 280 275 272 269 266 263 260 259
278 284 288 292 298 302 305 309 314 319 322 327 329 332 336 338 340 340 341 338 338 337 337 336 337 339 336 331 327 322 316 312 307 302 296 290 284 278 273 270 267 264 261 259
282 285 290 293 298 302 306 309 312 316 322 326 328 331 336 336 339 338 339 337 335 334 333 333 337 337 335 331 327 322 317 313 309 303 298 293 288 282 276 272 269 266 263 260
282 285 290 293 297 301 307 310 312 316 320 324 327 331 333 334 336 336 337 335 333 333 333 331 333 335 333 330 327 322 317 313 309 304 299 295 292 287 280 275 272 268 265 263
279 282 287 289 298 302 305 308 310 315 319 324 325 329 331 332 335 334 336 333 332 331 331 330 333 333 331 329 326 322 317 313 309 303 298 296 293 289 284 278 274 271 267 264
278 282 288 291 296 300 303 306 309 314 318 322 324 327 329 330 333 333 334 332 330 330 330 330 333 333 330 328 325 322 318 314 309 305 301 298 294 291 287 282 277 272 269 266
277 283 289 293 298 300 304 307 310 313 316 320 324 325 328 331 330 332 331 330 328 329 330 332 332 332 328 326 324 322 318 313 309 305 300 296 294 293 290 286 283 277 273 269